| time (UTC) | temp C | wind direction | speed KPH | gust KPH | rain 1hr cm | rain 24hr cm | rain mn cm | humidity % | barometer mb |
| 20260906104517 | 19 | 236 | 0.0 | 0.0 | 0.00 | 0.00 | 0.00 | 62 | 1027.9 |
| 20260906104232 | 19 | 0.0 | 0.0 | 0.00 | 0.00 | 0.00 | 64 | 1028.8 | |
| 20260906103035 | 18 | 323 | 0.0 | 0.0 | 0.00 | 0.00 | 0.00 | 63 | 1028.0 |
| 20260906101513 | 18 | 270 | 0.0 | 0.0 | 0.00 | 0.00 | 0.00 | 63 | 1028.3 |
| 20260906100021 | 18 | 182 | 0.0 | 0.0 | 0.00 | 0.00 | 0.00 | 64 | 1028.2 |
| 20260906094508 | 17 | 86 | 0.0 | 0.0 | 0.00 | 0.00 | 0.00 | 66 | 1028.4 |
| 20260906094222 | 18 | 0.0 | 0.0 | 0.00 | 0.00 | 0.00 | 64 | 1029.1 | |
| 20260906093007 | 18 | 74 | 0.0 | 0.0 | 0.00 | 0.00 | 0.00 | 64 | 1028.5 |
| 20260906091504 | 17 | 70 | 0.0 | 0.0 | 0.00 | 0.00 | 0.00 | 65 | 1028.5 |
| 20260906090002 | 17 | 240 | 0.0 | 0.0 | 0.00 | 0.00 | 0.00 | 68 | 1028.5 |
| 20260906084659 | 17 | 76 | 0.0 | 0.0 | 0.00 | 0.00 | 0.00 | 71 | 1028.5 |
| 20260906084204 | 16 | 0.0 | 0.0 | 0.00 | 0.00 | 0.00 | 68 | 1029.1 | |
| 20260906083059 | 16 | 27 | 0.0 | 0.0 | 0.00 | 0.00 | 0.00 | 69 | 1028.3 |
| 20260906081552 | 15 | 232 | 0.0 | 0.0 | 0.00 | 0.00 | 0.00 | 72 | 1028.4 |
| 20260906080051 | 15 | 225 | 0.0 | 0.0 | 0.00 | 0.00 | 0.00 | 78 | 1028.4 |
| 20260906074545 | 13 | 225 | 0.0 | 0.0 | 0.00 | 0.00 | 0.00 | 85 | 1028.3 |
| 20260906074132 | 13 | 0.0 | 0.0 | 0.00 | 0.00 | 0.00 | 88 | 1028.9 | |
| 20260906073041 | 13 | 225 | 0.0 | 0.0 | 0.00 | 0.00 | 0.00 | 88 | 1028.2 |
| 20260906071538 | 12 | 225 | 0.0 | 0.0 | 0.00 | 0.00 | 0.00 | 91 | 1028.2 |
| 20260906070037 | 10 | 225 | 0.0 | 0.0 | 0.00 | 0.00 | 0.00 | 91 | 1028.1 |
| 20260906064538 | 9 | 225 | 0.0 | 0.0 | 0.00 | 0.00 | 0.00 | 91 | 1028.0 |
| 20260906064103 | 8 | 0.0 | 0.0 | 0.00 | 0.00 | 0.00 | 90 | 1028.1 | |
| 20260906063034 | 8 | 226 | 0.0 | 0.0 | 0.00 | 0.00 | 0.00 | 90 | 1027.8 |
| 20260906061533 | 7 | 226 | 0.0 | 0.0 | 0.00 | 0.00 | 0.00 | 89 | 1027.8 |
| 20260906060032 | 7 | 226 | 0.0 | 0.0 | 0.00 | 0.00 | 0.00 | 89 | 1027.8 |
| 20260906054537 | 6 | 226 | 0.0 | 0.0 | 0.00 | 0.00 | 0.00 | 88 | 1027.7 |
| 20260906054129 | 7 | 0.0 | 0.0 | 0.00 | 0.00 | 0.00 | 88 | 1027.8 | |
| 20260906053029 | 6 | 226 | 0.0 | 0.0 | 0.00 | 0.00 | 0.00 | 88 | 1027.6 |
| 20260906051527 | 7 | 226 | 0.0 | 0.0 | 0.00 | 0.00 | 0.00 | 88 | 1027.4 |
| 20260906050027 | 7 | 226 | 0.0 | 0.0 | 0.00 | 0.00 | 0.00 | 88 | 1027.3 |
| 20260906044527 | 7 | 226 | 0.0 | 0.0 | 0.00 | 0.00 | 0.00 | 88 | 1027.2 |
| 20260906044059 | 7 | 0.0 | 0.0 | 0.00 | 0.00 | 0.00 | 88 | 1027.7 | |
| 20260906043025 | 7 | 226 | 0.0 | 0.0 | 0.00 | 0.00 | 0.00 | 88 | 1027.3 |
| 20260906041522 | 7 | 226 | 0.0 | 0.0 | 0.00 | 0.00 | 0.00 | 87 | 1027.1 |
| 20260906040022 | 7 | 226 | 0.0 | 0.0 | 0.00 | 0.00 | 0.00 | 87 | 1027.0 |
| 20260906034520 | 7 | 226 | 0.0 | 0.0 | 0.00 | 0.13 | 0.00 | 87 | 1027.0 |
| 20260906034127 | 7 | 0.0 | 0.0 | 0.00 | 0.00 | 0.00 | 87 | 1027.5 | |
| 20260906033019 | 7 | 226 | 0.0 | 0.0 | 0.00 | 0.13 | 0.00 | 87 | 1027.1 |
| 20260906031518 | 7 | 226 | 0.0 | 0.0 | 0.00 | 0.13 | 0.00 | 87 | 1026.9 |
| 20260906030017 | 7 | 226 | 0.0 | 0.0 | 0.00 | 0.13 | 0.00 | 86 | 1026.9 |
| 20260906024514 | 7 | 226 | 0.0 | 0.0 | 0.00 | 0.25 | 0.00 | 87 | 1026.8 |
| 20260906024204 | 8 | 0.0 | 0.0 | 0.00 | 0.23 | 0.00 | 86 | 1027.3 | |
| 20260906023012 | 8 | 225 | 0.0 | 0.0 | 0.00 | 0.25 | 0.00 | 86 | 1026.7 |
| 20260906021520 | 8 | 225 | 0.0 | 0.0 | 0.00 | 0.25 | 0.00 | 86 | 1026.4 |
| 20260906020011 | 8 | 225 | 0.0 | 0.0 | 0.00 | 0.25 | 0.00 | 86 | 1026.2 |
| 20260906014514 | 8 | 225 | 0.0 | 0.0 | 0.00 | 0.33 | 0.00 | 85 | 1026.1 |
| 20260906014153 | 8 | 0.0 | 0.0 | 0.00 | 0.33 | 0.00 | 84 | 1026.8 | |
| 20260906013008 | 8 | 225 | 0.0 | 0.0 | 0.00 | 0.33 | 0.00 | 84 | 1026.1 |
| 20260906011502 | 8 | 225 | 0.0 | 0.0 | 0.00 | 0.33 | 0.00 | 84 | 1026.0 |
| 20260906010003 | 8 | 225 | 0.0 | 0.0 | 0.00 | 0.33 | 0.00 | 84 | 1026.0 |
| 20260906004559 | 9 | 225 | 0.0 | 0.0 | 0.00 | 0.36 | 0.00 | 83 | 1026.0 |
| 20260906004033 | 10 | 0.0 | 0.0 | 0.00 | 0.36 | 0.00 | 83 | 1026.4 | |
| 20260906003057 | 9 | 225 | 0.0 | 0.0 | 0.00 | 0.36 | 0.00 | 83 | 1025.9 |
| 20260906001555 | 9 | 226 | 0.0 | 0.0 | 0.00 | 0.36 | 0.00 | 83 | 1025.8 |
| 20260906000054 | 10 | 226 | 0.0 | 0.0 | 0.00 | 0.36 | 0.00 | 82 | 1025.8 |
| 20260905234551 | 10 | 225 | 0.0 | 0.0 | 0.00 | 0.36 | 0.00 | 81 | 1025.7 |
| 20260905234124 | 10 | 0.0 | 0.0 | 0.00 | 0.36 | 0.00 | 81 | 1026.1 | |
| 20260905233049 | 10 | 226 | 0.0 | 0.0 | 0.00 | 0.36 | 0.00 | 81 | 1025.5 |
| 20260905231548 | 10 | 226 | 0.0 | 0.0 | 0.00 | 0.36 | 0.00 | 81 | 1025.4 |
| 20260905230044 | 11 | 226 | 0.0 | 0.0 | 0.00 | 0.36 | 0.00 | 79 | 1025.2 |
| 20260905224542 | 11 | 226 | 0.0 | 0.0 | 0.00 | 0.36 | 0.00 | 79 | 1025.1 |
| 20260905224030 | 11 | 0.0 | 0.0 | 0.00 | 0.36 | 0.00 | 78 | 1025.6 | |
| 20260905223038 | 11 | 226 | 0.0 | 0.0 | 0.00 | 0.36 | 0.00 | 78 | 1025.0 |
| 20260905221535 | 12 | 226 | 0.0 | 0.0 | 0.00 | 0.36 | 0.00 | 77 | 1024.8 |
| 20260905220032 | 12 | 226 | 0.0 | 0.0 | 0.00 | 0.36 | 0.00 | 75 | 1024.8 |
| 20260905214530 | 12 | 226 | 0.0 | 0.0 | 0.00 | 0.36 | 0.36 | 75 | 1024.9 |
| 20260905213959 | 13 | 0.0 | 0.0 | 0.00 | 0.36 | 0.36 | 74 | 1025.3 | |
| 20260905213029 | 12 | 226 | 0.0 | 0.0 | 0.00 | 0.36 | 0.36 | 74 | 1024.8 |
| 20260905211528 | 13 | 226 | 0.0 | 0.0 | 0.00 | 0.36 | 0.36 | 74 | 1024.5 |
| 20260905210028 | 13 | 226 | 0.0 | 0.0 | 0.00 | 0.36 | 0.36 | 72 | 1024.5 |
| 20260905204527 | 13 | 226 | 0.0 | 0.0 | 0.00 | 0.36 | 0.36 | 72 | 1024.4 |
| 20260905204030 | 13 | 0.0 | 0.0 | 0.00 | 0.36 | 0.36 | 71 | 1024.8 | |
| 20260905203025 | 13 | 226 | 0.0 | 0.0 | 0.00 | 0.36 | 0.36 | 71 | 1024.2 |
| 20260905201524 | 13 | 226 | 0.0 | 0.0 | 0.00 | 0.36 | 0.36 | 71 | 1024.0 |
| 20260905200031 | 14 | 226 | 0.0 | 0.0 | 0.00 | 0.36 | 0.36 | 70 | 1023.8 |
| 20260905194521 | 15 | 226 | 0.0 | 0.0 | 0.00 | 0.36 | 0.36 | 68 | 1023.7 |
| 20260905193957 | 16 | 0.0 | 0.0 | 0.00 | 0.36 | 0.36 | 65 | 1024.3 | |
| 20260905193020 | 16 | 225 | 0.0 | 0.0 | 0.00 | 0.36 | 0.36 | 65 | 1023.6 |
| 20260905191526 | 16 | 225 | 0.0 | 0.0 | 0.00 | 0.36 | 0.36 | 62 | 1023.5 |
| 20260905190029 | 17 | 225 | 0.0 | 1.6 | 0.00 | 0.36 | 0.36 | 61 | 1023.3 |
| 20260905184522 | 17 | 225 | 0.0 | 3.2 | 0.00 | 0.36 | 0.36 | 61 | 1023.1 |
| 20260905184230 | 17 | 0.0 | 1.6 | 0.00 | 0.36 | 0.36 | 61 | 1023.7 | |
| 20260905183014 | 17 | 225 | 0.0 | 4.8 | 0.00 | 0.36 | 0.36 | 60 | 1023.0 |
| 20260905181512 | 17 | 284 | 0.0 | 4.8 | 0.00 | 0.36 | 0.36 | 59 | 1022.7 |
| 20260905180012 | 18 | 324 | 1.6 | 4.8 | 0.00 | 0.36 | 0.36 | 58 | 1022.3 |
| 20260905174509 | 18 | 252 | 0.0 | 6.4 | 0.00 | 0.36 | 0.36 | 58 | 1022.1 |
| 20260905174119 | 19 | 270 | 3.2 | 3.2 | 0.00 | 0.36 | 0.36 | 56 | 1022.8 |
| 20260905173005 | 18 | 274 | 1.6 | 6.4 | 0.00 | 0.36 | 0.36 | 57 | 1021.9 |
| 20260905171504 | 19 | 266 | 1.6 | 8.0 | 0.00 | 0.36 | 0.36 | 57 | 1021.7 |
| 20260905170002 | 20 | 295 | 1.6 | 11.3 | 0.00 | 0.36 | 0.36 | 57 | 1021.5 |
| 20260905164501 | 20 | 178 | 1.6 | 9.7 | 0.00 | 0.36 | 0.36 | 57 | 1021.2 |
| 20260905164024 | 21 | 270 | 3.2 | 6.4 | 0.00 | 0.36 | 0.36 | 55 | 1022.0 |
| 20260905163058 | 20 | 208 | 3.2 | 9.7 | 0.00 | 0.36 | 0.36 | 55 | 1021.0 |
| 20260905161557 | 21 | 268 | 3.2 | 16.1 | 0.00 | 0.36 | 0.36 | 54 | 1020.7 |
| 20260905160059 | 21 | 198 | 3.2 | 14.5 | 0.00 | 0.36 | 0.36 | 54 | 1020.5 |
| 20260905154556 | 21 | 296 | 3.2 | 14.5 | 0.00 | 0.36 | 0.36 | 52 | 1020.4 |
| 20260905153954 | 21 | 270 | 3.2 | 4.8 | 0.00 | 0.36 | 0.36 | 53 | 1021.6 |
| 20260905153107 | 21 | 269 | 3.2 | 19.3 | 0.00 | 0.36 | 0.36 | 53 | 1020.5 |
| 20260905151558 | 21 | 291 | 3.2 | 11.3 | 0.00 | 0.36 | 0.36 | 54 | 1020.3 |
| 20260905150056 | 21 | 265 | 1.6 | 14.5 | 0.00 | 0.36 | 0.36 | 55 | 1020.1 |
| 20260905144552 | 21 | 241 | 1.6 | 11.3 | 0.00 | 0.36 | 0.36 | 58 | 1020.0 |
| 20260905144007 | 21 | 293 | 3.2 | 4.8 | 0.00 | 0.36 | 0.36 | 62 | 1021.1 |
| 20260905143051 | 21 | 294 | 3.2 | 12.9 | 0.00 | 0.36 | 0.36 | 62 | 1019.9 |
| 20260905141600 | 22 | 265 | 3.2 | 14.5 | 0.00 | 0.36 | 0.36 | 60 | 1020.0 |
| 20260905140053 | 21 | 278 | 3.2 | 9.7 | 0.00 | 0.36 | 0.36 | 60 | 1020.0 |
| 20260905134550 | 21 | 296 | 1.6 | 11.3 | 0.00 | 0.36 | 0.36 | 60 | 1019.7 |
| 20260905133937 | 21 | 248 | 3.2 | 4.8 | 0.00 | 0.36 | 0.36 | 62 | 1021.3 |
| 20260905133049 | 21 | 189 | 1.6 | 11.3 | 0.00 | 0.36 | 0.36 | 62 | 1019.8 |
| 20260905131559 | 22 | 205 | 3.2 | 12.9 | 0.00 | 0.36 | 0.36 | 59 | 1020.0 |
| 20260905130048 | 22 | 253 | 1.6 | 6.4 | 0.00 | 0.36 | 0.36 | 60 | 1020.0 |
| 20260905124545 | 22 | 268 | 3.2 | 9.7 | 0.00 | 0.36 | 0.36 | 62 | 1020.0 |
| 20260905123908 | 21 | 248 | 3.2 | 4.8 | 0.00 | 0.36 | 0.36 | 66 | 1021.6 |
| 20260905123043 | 20 | 267 | 3.2 | 17.7 | 0.00 | 0.36 | 0.36 | 67 | 1020.0 |
| 20260905121542 | 19 | 253 | 3.2 | 11.3 | 0.00 | 0.36 | 0.36 | 66 | 1020.1 |
| 20260905120042 | 20 | 296 | 3.2 | 22.5 | 0.00 | 0.36 | 0.36 | 67 | 1020.2 |
| 20260905114549 | 20 | 211 | 3.2 | 12.9 | 0.00 | 0.36 | 0.36 | 68 | 1020.3 |
| 20260905113940 | 20 | 225 | 4.8 | 11.3 | 0.00 | 0.36 | 0.36 | 72 | 1022.0 |
| 20260905113041 | 20 | 251 | 4.8 | 12.9 | 0.00 | 0.36 | 0.36 | 72 | 1020.4 |
| 20260905111543 | 19 | 198 | 1.6 | 14.5 | 0.00 | 0.36 | 0.36 | 71 | 1020.5 |
| 20260905110040 | 19 | 275 | 1.6 | 4.8 | 0.00 | 0.36 | 0.36 | 73 | 1020.6 |